Weather in Bannikovo

Russia / Tyumen Oblast     56°06′56″N   70°16′38″E
temp.,
°C
wind,
m/s
gust,
m/s
humid.,
%
clouds,
%
prec.,
mm/h
press.,
hPa
HPBL,
m
7 may, fri
fri723:00+8wnw38505 0.0 1012163
02:00+7wnw410540 0.0 1014233
05:00+5w511620 0.0 1015321
08:00+9wnw79480 0.0 1017913
11:00+13wnw79320 0.0 10181180
14:00+17wnw79265 0.0 10181465
17:00+18wnw68293 0.0 10191505
20:00+14w464410 0.0 101993
8 may, sat
sat823:00+11wsw35474 0.0 102057
02:00+10wsw33515 0.0 102121
05:00+9wsw33535 0.0 102134
08:00+16wsw34393 0.0 1021317
11:00+20sw332890 0.0 10201528
14:00+22sw222432 0.0 10182087
17:00+22s222433 0.0 10182378
20:00+18sse223693 0.0 101814
9 may, sun
sun923:00+15s113994 0.0 101711
02:00+14ene2240100 0.0 101711
05:00+13e3547100 0.0 101777
08:00+18e474073 0.0 1017332
11:00+22e673098 0.0 10172166
14:00+23e783159 0.0 10162821
17:00+22ene893571 0.0 10162151
20:00+17ene6134491 0.0 1017486
10 may, mon
mon1023:00+15ene61450100 0.0 1017450
02:00+13ene51252100 0.0 1017381
05:00+10ene41057100 0.0 1018281
08:00+14ene69435 0.0 1019796
11:00+16ne68385 0.0 10191765
14:00+17ne663497 0.0 10192289
17:00+17nne563499 0.0 10192151
20:00+14ene484695 0.0 1020279
11 may, tue
tue1123:00+12ene2251100 0.0 102038
02:00+11nne3655100 0.0 1020168
05:00+10nne226089 0.0 102058
08:00+13ene33505 0.0 1021791
11:00+15ne34385 0.0 10212014
14:00+17nne34323 0.0 10212138
17:00+17nne34311 0.0 10211901
20:00+13e224351 0.0 102216